STARLINK-11510, 62516

Orbit data source: Space-Track

STARLINK-11510, 62516 is a payload satellite owned by SpaceX/Seattle (US) in LEO that was launched on Wed, 08 Jan 2025 UTC via an FALCON 9 launch vehicle from the Air Force Eastern Test Range (AFETR). Payload-class satellites include a variety of spacecraft equipped with specific instruments for various scientific and technological missions. These include communications satellites like Starlink; space stations such as the ISS; scientific satellites like the Hubble; Earth observation satellites from companies like Planet Labs, Umbra, and HawkEye 360; GPS; miniature CubeSats for education and research; and military/defense satellites.

Loading next visibility...
Identifier
62516, 2025-004F
Orbit
LEO
Country
Flag of USUS
Related business
Manufacturer
SpaceX/Seattle
Mission
Operational Commercial Communications
Bus & Motor
STARLINK V2MD, Unknown motor
Mass
960 kg wet, ~910 kg dry
Launch date (UTC)
2025-01-08 (1 year ago)
Launch vehicle
FALCON 9
Launch site
Air Force Eastern Test Range (AFETR)
Object type
Payload
Rocket body
Debris
Shape & HBR
Box + 2 Pan, 18.1 m
Radar Cross Section
36.964 m², Large (>1 m²)

Expand to show TLE details & history
Last TLE update: 1 day ago

TLE from 1 day ago
0 STARLINK-11510
1 62516U 25004F   26036.94994532  .00104227  00000-0  80483-3 0  9995
2 62516  42.9990 262.3184 0002105 259.6508 100.4123 15.70862202 62219
Epoch: 2026-02-05T22:47Z
TLE epoch observation values (Epoch: 2026-02-05T22:47:55.275Z)
Latitude
0.00002°
Longitude
144.24328°
Altitude
356.459 km
Speed
7.697 km/s
True Right ascension
17h 29m 16s
True Declination
0° 00' 00"
Sunlit
Object was in daylight at epoch
Visualization orbit readout
Latitude
Unknown
Longitude
Unknown
Altitude
Unknown
Speed
Unknown
Apparent Right ascension
Unknown
Apparent Declination
Unknown
Sunlit
N/A
Visualization observer readout
Local Sidereal Time
11:31:04
Azimuth
Unknown
Elevation
Unknown
Doppler factor
Unknown
Orbital elements
Apogee altitude
359.831 km
Perigee altitude
356.995 km
Semi-major axis
6,736.55 km
Eccentricity
0.00021
Inclination
42.999°
RAAN
262.3184°
Arg. of periapsis
259.6508°
True anomaly
100.43602°
Mean anomaly
100.4123°
Eccentric anomaly
100.42416°
Mean motion
3.92543 °/min
Orbital period
91.71 mins
BSTAR
0.00080483
Loading maneuver chart data...
Computing Atmospheric mass density...
Loading historical data...
Loading historical data...
Loading historical data...
Loading historical data...
Loading historical data...
Loading historical data...
Loading historical data...

Documentation

Showing up to 5 results
|